USA 40 R/B DEB

Satellite information

Favourite Embed

Satellite Type and Status

DEBRISIN ORBIT

Key statistics

Satellite USA 40 R/B DEB at a glance.

Uptime

13118

Days in orbit

Revolutions

≈ 10.4

Per day

Orbit

HEO

HEO

Inclination

57.0

Latest

Satellite identification and parameters

Extended collection of information and parameters for USA 40 R/B DEB.

Object identification

Identified? True

Debris? True

Object name: USA 40 R/B DEB

International designator: 1989-061X

Object number (NORAD): 23351

Object ID (CCSDS): 23351

Country: UNITED STATES OF AMERICA (US)

Current information (Y/N): Y

RCS size: SMALL

Orbital parameters

Period: 138.612 minutes

Inclination: 56.9651 deg

SMA: 8872.122 km

Apoapsis: 4482.883 km

Periapsis: 505.092 km

RAAN: 282.7761 deg

Eccentricy: 0.2241736

Argument of periapsis: 298.7367 deg

Mean anomaly: 40.6393 deg

Mean motion: 10.38870698 rev/day

Mean motion (dot): 0.00007495 rev/day2

B* drag term: 0.0038661 1/REarth

Two-line elements (TLE)

Creation date: July 5, 2025, 6:46 a.m.

Reference frame: TEME

Reference center: EARTH

Epoch: July 4, 2025, 5:44 a.m. UTC

TLE line 0: 0 USA 40 R/B DEB

TLE line 1: 1 23351U 89061X 25185.23948604 .00007495 00000-0 38661-2 0 9996

TLE line 2: 2 23351 56.9651 282.7761 2241736 298.7367 40.6393 10.38870698231100

Live tracking on map

Real-time ground track for satellite USA 40 R/B DEB.

In-orbit conjunctions

A list of the most updated potential collisions computed for object USA 40 R/B DEB.

Target Orbit TCA Probability of collision Miss distance Type
FENGYUN 1C DEB SSO 2024-09-27 00:56:34 0.0001041734 936.0 (m) DEBRIS

Associated space launch

STS-28 was the thirtieth space shuttle mission, the fourth dedicated to the Department of Defence and the eigth of the Space Shuttle Columbia.

USA 40 R/B DEB was lifted into orbit during the mission ‘Space Shuttle Columbia / OV-102 | STS-28’, on board a Space Shuttle space rocket.

The launch took place on Aug. 8, 1989, 12:37 p.m. from Launch Complex 39B.

For more information about the launch, click the button.

Launch to space Space Shuttle Columbia / OV-102 | STS-28
Space Shuttle Columbia / OV-102 | STS-28

Agency: N/A

Status: Launch Successful

Launch date: Aug. 8, 1989, 12:37 p.m. UTC

Rocket: Space Shuttle

Launch pad: Launch Complex 39B

Location: Kennedy Space Center, FL, USA

...

Latest news about this satellite

There are no fresh news available about this satellite. Check back as we update our databases every day.


Newsletter sign-up

Weekly statistics, charts and insights to help you stay on top of the space industry.